CAPE
997 686 295 294 685 872 1080 1171 1272 1084 1098 1141 1182 1248 1092 1116 1302 1193 714 625 451 183 7 0 0 0 0 2 3 5 16 21
1160 838 732 722 754 929 1156 1339 1355 1170 1139 1114 1058 728 652 1444 1007 534 423 316 128 11 0 0 0 0 0 0 0 1 0 35
1063 1313 1014 919 899 1018 1186 1222 1261 1234 1284 1397 1359 920 524 818 645 428 288 98 25 0 0 0 0 0 0 0 0 0 0 0
364 1216 1488 1249 1134 1099 1127 1241 1320 1436 1554 1432 962 556 471 422 534 253 32 26 20 0 0 0 0 0 0 0 0 3 2 0
10 347 1121 1486 1498 1514 1525 1589 2193 2047 1478 1178 605 553 511 477 326 41 35 44 0 0 0 0 0 0 0 0 0 0 0 0
7 1 21 517 988 930 2118 1907 1624 1225 804 693 629 621 463 439 221 57 46 0 0 0 0 0 0 0 0 0 0 0 0 0
0 0 0 0 0 145 1086 1015 703 520 438 526 804 722 334 257 101 45 5 0 0 0 0 0 0 0 0 0 0 0 0 0
0 0 0 1 0 3 197 663 211 173 330 493 677 704 249 151 34 0 0 0 0 0 0 0 0 0 0 0 0 0 0 0
0 0 0 0 0 1 106 144 395 367 467 703 595 335 87 16 0 0 0 0 0 0 0 0 0 0 0 0 0 0 0 0
0 0 0 0 0 1 1 110 224 284 284 168 202 207 178 93 3 0 0 0 0 0 0 0 0 0 0 0 0 0 0 0
1 0 0 0 0 1 1 20 152 231 233 209 230 184 121 88 21 0 0 0 0 0 0 0 0 0 0 0 0 0 0 0
2 6 0 0 0 0 38 124 185 150 154 226 232 192 53 11 17 18 0 6 4 0 0 0 0 0 0 7 11 8 0 0
14 39 55 43 0 27 47 56 83 147 250 337 248 132 0 0 15 18 1 1 9 6 23 22 28 19 44 39 35 33 32 29
7 60 140 119 38 31 42 111 207 322 327 155 94 20 25 58 73 64 61 80 89 62 79 109 110 106 102 51 40 57 47 46
2 28 122 195 123 56 95 181 260 299 147 42 11 38 51 31 18 47 63 90 94 120 115 88 65 52 42 57 54 42 51 59
0 5 106 112 129 160 233 264 175 25 9 11 27 24 20 29 66 76 46 17 44 93 86 76 61 49 21 33 39 42 48 33
0 0 0 41 106 124 200 208 146 18 0 11 27 59 93 103 111 64 21 11 25 62 55 70 70 38 48 62 56 45 41 4
0 0 0 0 1 35 145 170 23 6 9 2 3 22 43 43 70 85 89 88 88 82 31 12 11 0 7 12 0 0 3 3
0 0 0 1 6 0 3 26 41 51 44 53 68 49 18 54 37 25 18 2 1 0 0 0 1 1 0 0 0 0 0 0
CIN
-329 -393 -446 -278 -233 -198 -142 -114 -92 -34 -89 -54 -31 -16 -22 -11 0 0 -17 -24 -45 -80 -166 0 0 0 0 -208 -283 -119 -139 -95
-269 -279 -328 -281 -196 -173 -121 -92 -90 -48 -35 -81 -58 -61 -67 -2 -17 -62 -84 -102 -133 -162 0 0 0 0 0 0 -2 -67 -1 -128
-245 -219 -271 -220 -204 -130 -92 -78 -22 -38 -41 -34 -28 -52 -111 -51 -52 -81 -100 -163 -162 -1 0 0 0 0 0 0 0 0 0 0
-384 -205 -163 -180 -144 -105 -67 -25 -25 -21 -18 -19 -47 -111 -133 -115 -63 -107 -167 -153 -167 0 0 0 0 0 0 0 0 -23 -30 0
-676 -376 -217 -143 -90 -58 -36 -17 -1 0 -8 -21 -98 -110 -94 -68 -79 -158 -140 -133 0 0 0 0 0 0 0 0 0 0 0 0
-663 -649 -486 -277 -147 -123 -3 -1 -7 -28 -66 -91 -89 -92 -74 -64 -112 -137 -132 0 0 0 0 0 0 0 0 0 0 0 0 0
-242 0 0 0 0 -327 -80 -70 -104 -125 -140 -117 -54 -35 -87 -99 -120 -149 -113 0 0 0 0 0 0 0 0 0 0 0 0 0
0 0 0 0 0 -113 -252 -121 -215 -210 -154 -106 -44 -24 -92 -101 -168 -7 0 0 0 0 0 0 0 0 0 0 0 0 0 0
0 0 0 0 0 0 -275 -233 -152 -145 -116 -46 -38 -77 -155 -224 0 0 0 0 0 0 0 0 0 0 0 0 0 0 0 0
0 0 0 0 0 0 0 -246 -195 -175 -144 -166 -134 -111 -103 -137 -92 0 0 0 0 0 0 0 0 0 0 0 0 0 0 0
-78 0 0 0 0 -2 0 -321 -222 -181 -137 -128 -82 -91 -105 -115 -163 0 0 0 0 0 0 0 0 0 0 0 0 0 0 0
-110 -253 0 0 0 0 -275 -213 -175 -181 -158 -97 -59 -41 -92 -38 -104 -90 0 -88 -53 0 0 0 0 0 0 -47 -49 -50 0 0
-341 -345 -288 -282 0 -285 -272 -238 -217 -164 -88 -38 -44 -35 -5 0 -51 -77 -77 -12 -18 -45 -26 -11 -5 -11 -2 -2 -7 -10 -11 -14
-256 -270 -240 -220 -314 -301 -255 -177 -126 -85 -62 -74 -77 -61 -48 -41 -25 -21 -13 -13 -13 -12 -7 -1 -3 -2 -2 -4 -6 -4 -5 -2
-210 -251 -217 -198 -231 -224 -164 -118 -68 -39 -37 -62 -90 -49 -58 -47 -26 -12 -8 -8 -10 -6 0 -2 -10 -10 -17 -15 -16 -13 -15 -11
0 -152 -168 -179 -179 -169 -143 -104 -77 -96 -119 -97 -76 -78 -44 -18 -17 -17 -17 -14 -9 0 -3 -1 -9 -14 -36 -38 -29 -20 -2 -3
0 0 0 -219 -182 -159 -144 -111 -79 -65 -5 -71 -90 -63 -40 -39 -18 -30 -14 -14 -5 -4 -13 -13 -11 -19 -3 0 -1 -16 -6 -11
0 0 0 0 -75 -192 -124 -88 -102 -60 -40 -42 -79 -32 -19 -19 -9 -1 0 -6 -4 -1 -7 -2 -2 0 -1 -3 0 0 -1 0
0 0 0 -30 -76 0 -105 -75 -54 -46 -31 -12 -3 -5 -11 -3 -4 -2 -2 -1 -1 0 0 0 -3 -1 0 0 0 0 0 0
Wind_Speed
36 42 42 40 37 35 35 36 36 32 28 25 23 23 24 24 27 29 33 34 37 39 nan nan nan nan nan nan nan nan nan nan
40 40 43 42 36 36 35 37 32 28 23 23 22 22 24 25 29 33 35 37 40 nan nan nan nan nan nan nan nan nan nan nan
41 40 39 35 34 34 33 31 28 22 21 19 20 22 25 29 31 35 36 nan nan nan nan nan nan nan nan nan nan nan nan nan
40 38 36 35 36 34 31 28 26 24 23 22 23 26 29 30 31 33 nan nan nan nan nan nan nan nan nan nan nan nan nan nan
nan 34 31 33 32 32 29 28 27 25 23 23 28 27 30 30 34 nan nan nan nan nan nan nan nan nan nan nan nan nan nan nan
nan nan nan 34 34 31 28 28 26 24 23 24 27 31 32 33 37 nan nan nan nan nan nan nan nan nan nan nan nan nan nan nan
nan nan nan nan nan 31 28 28 26 25 25 27 30 35 37 39 41 nan nan nan nan nan nan nan nan nan nan nan nan nan nan nan
nan nan nan nan nan nan 28 28 29 27 27 28 31 37 40 43 nan nan nan nan nan nan nan nan nan nan nan nan nan nan nan nan
nan nan nan nan nan nan 29 30 30 29 27 28 32 40 nan nan nan nan nan nan nan nan nan nan nan nan nan nan nan nan nan nan
nan nan nan nan nan nan nan 32 31 31 29 30 37 44 47 nan nan nan nan nan nan nan nan nan nan nan nan nan nan nan nan nan
nan nan nan nan nan nan nan nan 33 33 33 37 42 46 47 nan nan nan nan nan nan nan nan nan nan nan nan nan nan nan nan nan
nan nan nan nan nan nan nan 32 35 35 37 40 45 49 nan nan nan nan nan nan nan nan nan nan nan nan nan nan nan nan nan nan
nan nan nan nan nan nan nan nan nan 37 41 44 46 50 nan nan nan nan nan nan nan nan nan nan nan nan nan nan nan nan nan nan
nan nan 35 37 nan nan nan 36 37 42 47 49 nan nan nan nan nan nan nan nan nan nan nan 62 61 59 54 nan nan nan nan nan
nan nan 35 32 33 nan nan 40 40 45 52 nan nan nan nan nan nan nan nan nan nan 67 67 nan nan nan nan nan nan nan nan nan
nan nan 35 32 32 35 38 42 44 nan nan nan nan nan nan nan nan nan nan nan nan nan nan nan nan nan nan nan nan nan nan nan
nan nan nan nan 35 35 34 44 47 nan nan nan nan nan nan 69 68 nan nan nan nan nan nan nan nan nan nan nan nan nan nan nan
nan nan nan nan nan nan 43 43 nan nan nan nan nan nan nan nan nan nan nan nan nan nan nan nan nan nan nan nan nan nan nan nan
nan nan nan nan nan nan nan nan nan nan nan nan nan nan nan nan nan nan nan nan nan nan nan nan nan nan nan nan nan nan nan nan
Wind_Direction
291 291 286 288 294 291 289 288 292 292 292 292 296 302 305 313 315 308 310 309 308 308 nan nan nan nan nan nan nan nan nan nan
303 293 287 286 285 291 294 295 294 298 294 294 296 301 306 305 303 303 305 306 306 nan nan nan nan nan nan nan nan nan nan nan
302 291 286 290 287 287 288 290 294 286 284 291 292 301 296 296 298 301 306 nan nan nan nan nan nan nan nan nan nan nan nan nan
303 290 290 288 287 287 289 292 291 286 287 291 291 287 290 294 298 296 nan nan nan nan nan nan nan nan nan nan nan nan nan nan
nan 288 288 283 281 282 285 284 285 286 296 298 312 298 295 298 294 nan nan nan nan nan nan nan nan nan nan nan nan nan nan nan
nan nan nan 281 284 283 280 282 281 291 300 301 293 290 288 290 290 nan nan nan nan nan nan nan nan nan nan nan nan nan nan nan
nan nan nan nan nan 280 281 283 286 293 295 298 294 294 290 288 293 nan nan nan nan nan nan nan nan nan nan nan nan nan nan nan
nan nan nan nan nan nan 279 283 285 291 294 295 291 290 291 294 nan nan nan nan nan nan nan nan nan nan nan nan nan nan nan nan
nan nan nan nan nan nan 281 283 286 291 296 297 294 292 nan nan nan nan nan nan nan nan nan nan nan nan nan nan nan nan nan nan
nan nan nan nan nan nan nan 290 295 299 305 299 297 292 294 nan nan nan nan nan nan nan nan nan nan nan nan nan nan nan nan nan
nan nan nan nan nan nan nan nan 299 302 301 297 297 295 298 nan nan nan nan nan nan nan nan nan nan nan nan nan nan nan nan nan
nan nan nan nan nan nan nan 296 297 299 300 298 298 299 nan nan nan nan nan nan nan nan nan nan nan nan nan nan nan nan nan nan
nan nan nan nan nan nan nan nan nan 300 300 300 301 299 nan nan nan nan nan nan nan nan nan nan nan nan nan nan nan nan nan nan
nan nan 285 286 nan nan nan 297 304 304 300 298 nan nan nan nan nan nan nan nan nan nan nan 300 299 297 299 nan nan nan nan nan
nan nan 292 286 288 nan nan 300 301 306 304 nan nan nan nan nan nan nan nan nan nan 298 297 nan nan nan nan nan nan nan nan nan
nan nan 291 288 291 299 308 306 307 nan nan nan nan nan nan nan nan nan nan nan nan nan nan nan nan nan nan nan nan nan nan nan
nan nan nan nan 295 307 308 314 304 nan nan nan nan nan nan 300 300 nan nan nan nan nan nan nan nan nan nan nan nan nan nan nan
nan nan nan nan nan nan 314 295 nan nan nan nan nan nan nan nan nan nan nan nan nan nan nan nan nan nan nan nan nan nan nan nan
nan nan nan nan nan nan nan nan nan nan nan nan nan nan nan nan nan nan nan nan nan nan nan nan nan nan nan nan nan nan nan nan